CW8398 Weather Reports


Display with metric or nautical units.
time (UTC)temp
F
wind
direction
speed
MPH
gust
MPH
rain 1hr
in
rain 24hr
in
rain mn
in
humidity
%
barometer
mb
20260510105803 57 154 6.0 12.0 0.00 0.00 0.00 42 1011.0
20260510105306 57 149 4.0 12.0 0.00 0.00 0.00 43 1011.0
20260510104302 57 163 6.0 12.0 0.00 0.00 0.00 44 1011.0
20260510103802 58 168 5.0 10.0 0.00 0.00 0.00 47 1011.0
20260510102802 57 179 5.0 10.0 0.00 0.00 0.00 47 1011.6
20260510102305 57 178 4.0 7.0 0.00 0.00 0.00 50 1011.6
20260510101802 57 170 4.0 10.0 0.00 0.00 0.00 53 1011.6
20260510100802 57 164 4.0 9.0 0.00 0.00 0.00 51 1011.6
20260510100302 57 181 6.0 12.0 0.00 0.00 0.00 52 1011.6
20260510095802 56 188 5.0 12.0 0.00 0.00 0.00 54 1011.6
20260510095305 56 171 5.0 13.0 0.00 0.00 0.00 56 1011.6
20260510094802 56 166 4.0 12.0 0.00 0.00 0.00 57 1011.6
20260510094302 55 189 6.0 10.0 0.00 0.00 0.00 56 1012.6
20260510092802 55 156 6.0 14.0 0.00 0.00 0.00 52 1012.6
20260510092306 56 168 6.0 9.0 0.00 0.00 0.00 53 1012.6
20260510091803 55 164 5.0 10.0 0.00 0.00 0.00 55 1012.6
20260510090802 56 163 4.0 9.0 0.00 0.00 0.00 53 1012.6
20260510090302 55 169 5.0 12.0 0.00 0.00 0.00 53 1012.6
20260510085803 55 169 5.0 13.0 0.00 0.00 0.00 52 1012.6
20260510085306 55 158 5.0 12.0 0.00 0.00 0.00 51 1012.6
20260510084802 55 167 5.0 12.0 0.00 0.00 0.00 50 1012.6
20260510084303 55 154 6.0 10.0 0.00 0.00 0.00 49 1012.6
20260510083802 56 166 6.0 12.0 0.00 0.00 0.00 50 1012.6
20260510083302 55 185 4.0 12.0 0.00 0.00 0.00 53 1012.6
20260510082802 55 147 3.0 12.0 0.00 0.00 0.00 52 1012.6
20260510081802 55 152 5.0 7.0 0.00 0.00 0.00 50 1012.6
20260510081302 56 175 4.0 9.0 0.00 0.00 0.00 51 1012.6
20260510080803 55 166 3.0 12.0 0.00 0.00 0.00 50 1012.6
20260510080302 55 193 2.0 8.0 0.00 0.00 0.00 50 1012.6
20260510075803 55 178 1.0 3.0 0.00 0.00 0.00 49 1012.6
20260510075306 55 136 2.0 6.0 0.00 0.00 0.00 48 1012.6
20260510074802 55 165 1.0 5.0 0.00 0.00 0.00 48 1012.6
20260510074302 55 150 3.0 9.0 0.00 0.00 0.00 50 1012.6
20260510073803 55 179 1.0 7.0 0.00 0.00 0.00 51 1014.7
20260510073302 54 246 2.0 6.0 0.00 0.00 0.00 51 1014.7
20260510072305 54 250 2.0 6.0 0.00 0.00 0.00 54 1014.7
20260510071802 54 171 4.0 9.0 0.00 0.00 0.00 55 1014.7
20260510070802 53 185 4.0 9.0 0.00 0.00 0.00 56 1014.7
20260510070302 53 189 3.0 7.0 0.00 0.00 0.00 56 1014.7
20260510065803 53 188 2.0 7.0 0.00 0.00 0.00 59 1014.7
20260510065306 52 158 2.0 5.0 0.00 0.00 0.00 58 1014.7
20260510064802 52 197 2.0 7.0 0.00 0.00 0.00 61 1014.7
20260510064303 51 180 2.0 6.0 0.00 0.00 0.00 63 1014.7
20260510063802 51 174 3.0 6.0 0.00 0.00 0.00 65 1014.7
20260510063302 50 182 3.0 6.0 0.00 0.00 0.00 67 1014.7
20260510062802 50 195 3.0 6.0 0.00 0.00 0.00 67 1014.7
20260510062306 49 183 2.0 5.0 0.00 0.00 0.00 72 1014.7
20260510061802 48 172 4.0 7.0 0.00 0.00 0.00 73 1014.7
20260510061302 48 161 2.0 7.0 0.00 0.00 0.00 76 1014.7
20260510060802 47 143 2.0 8.0 0.00 0.00 0.00 80 1014.7
20260510060302 47 166 3.0 8.0 0.00 0.00 0.00 83 1014.7
20260510055802 46 169 3.0 6.0 0.00 0.00 0.00 86 1014.7
20260510055306 45 193 2.0 5.0 0.00 0.00 0.00 90 1014.7
20260510054303 44 168 2.0 6.0 0.00 0.00 0.00 95 1014.7
20260510053803 44 174 2.0 6.0 0.00 0.00 0.00 95 1014.7
20260510053302 44 156 2.0 5.0 0.00 0.00 0.00 95 1014.7
20260510050803 42 163 1.0 3.0 0.00 0.00 0.00 95 1014.7
20260510050303 42 170 1.0 3.0 0.00 0.00 0.00 95 1014.7
20260510045803 42 174 1.0 2.0 0.00 0.00 0.00 95 1014.7
20260510045305 42 174 1.0 2.0 0.00 0.00 0.00 95 1014.7
20260510044803 42 174 1.0 3.0 0.00 0.00 0.00 95 1014.7
20260510044302 41 168 1.0 3.0 0.00 0.00 0.00 95 1014.8
20260510043803 41 170 2.0 3.0 0.00 0.00 0.00 95 1015.8
20260510042305 39 169 1.0 3.0 0.00 0.00 0.00 95 1015.8
20260510041803 38 172 2.0 3.0 0.00 0.00 0.00 95 1015.8
20260510041302 37 165 1.0 2.0 0.00 0.00 0.00 95 1015.8
20260510040302 36 165 1.0 2.0 0.00 0.00 0.00 94 1015.8
20260510035306 36 165 0.0 0.0 0.00 0.00 0.00 94 1015.8
20260510034302 35 165 0.0 0.0 0.00 0.00 0.00 94 1015.8
20260510033802 35 165 0.0 0.0 0.00 0.00 0.00 93 1015.8
20260510032802 35 165 0.0 0.0 0.00 0.00 0.00 93 1015.8
20260510031802 35 165 0.0 0.0 0.00 0.00 0.00 93 1015.8
20260510030803 35 165 0.0 0.0 0.00 0.00 0.00 93 1015.8
20260510030303 35 165 0.0 0.0 0.00 0.00 0.00 93 1016.9
20260510025802 35 165 0.0 0.0 0.00 0.00 0.00 93 1016.9
20260510024803 35 165 0.0 0.0 0.00 0.00 0.00 93 1016.9
20260510024302 35 165 0.0 0.0 0.00 0.00 0.00 93 1016.9
20260510023802 35 165 0.0 0.0 0.00 0.00 0.00 93 1016.9
20260510022803 35 165 0.0 0.0 0.00 0.00 0.00 93 1016.9
20260510022306 35 165 0.0 1.0 0.00 0.00 0.00 93 1016.9
20260510021803 35 165 0.0 1.0 0.00 0.00 0.00 93 1016.9
20260510020803 35 165 0.0 0.0 0.00 0.00 0.00 93 1016.9
20260510020303 35 165 0.0 1.0 0.00 0.00 0.00 93 1016.9
20260510015803 35 165 0.0 1.0 0.00 0.00 0.00 93 1016.9
20260510015306 35 165 1.0 2.0 0.00 0.00 0.00 93 1016.9
20260510014302 35 165 0.0 0.0 0.00 0.00 0.00 93 1016.9
20260510013802 35 165 0.0 0.0 0.00 0.00 0.00 93 1016.9
20260510013303 35 165 0.0 0.0 0.00 0.00 0.00 93 1016.9
20260510012802 35 165 0.0 0.0 0.00 0.00 0.00 92 1016.9
20260510012306 35 165 0.0 0.0 0.00 0.00 0.00 92 1016.9
20260510011803 35 165 0.0 0.0 0.00 0.00 0.00 92 1016.9
20260510011302 35 165 0.0 0.0 0.00 0.00 0.00 92 1018.2
20260510010303 35 165 0.0 0.0 0.00 0.00 0.00 92 1018.2
20260510005803 35 165 0.0 1.0 0.00 0.00 0.00 92 1018.2
20260510005306 35 165 1.0 1.0 0.00 0.00 0.00 92 1018.2
20260510003302 35 165 1.0 2.0 0.00 0.00 0.00 91 1018.2
20260510002803 35 165 1.0 2.0 0.00 0.00 0.00 91 1018.2
20260510002306 35 165 1.0 2.0 0.00 0.00 0.00 91 1018.2
20260510001803 35 165 1.0 1.0 0.00 0.00 0.00 90 1018.2
20260510001303 36 165 1.0 2.0 0.00 0.00 0.00 90 1018.2
20260510000803 36 165 1.0 2.0 0.00 0.00 0.00 90 1018.2
20260510000304 36 165 0.0 1.0 0.00 0.00 0.00 90 1018.2
20260509235803 36 165 0.0 0.0 0.00 0.00 0.00 90 1018.2
20260509235306 36 165 0.0 0.0 0.00 0.00 0.00 90 1018.2
20260509234803 36 165 0.0 0.0 0.00 0.00 0.00 90 1018.2
20260509234303 36 165 0.0 0.0 0.00 0.00 0.00 90 1018.2
20260509233802 37 165 0.0 0.0 0.00 0.00 0.00 90 1018.2
20260509233302 37 165 0.0 0.0 0.00 0.00 0.00 90 1018.2
20260509232802 37 165 0.0 0.0 0.00 0.00 0.00 90 1018.2
20260509232306 37 165 0.0 0.0 0.00 0.00 0.00 90 1018.2
20260509231803 37 165 0.0 0.0 0.00 0.00 0.00 90 1018.2
20260509230803 37 165 0.0 0.0 0.00 0.00 0.00 90 1018.3
20260509230303 37 165 0.0 0.0 0.00 0.00 0.00 90 1018.3
20260509225305 37 165 0.0 0.0 0.00 0.00 0.00 89 1018.4
20260509224303 37 165 0.0 0.0 0.00 0.00 0.00 89 1019.2
20260509223303 38 165 0.0 0.0 0.00 0.00 0.00 89 1019.2
20260509222802 38 165 0.0 0.0 0.00 0.00 0.00 89 1019.2
20260509222306 38 165 0.0 0.0 0.00 0.00 0.00 89 1019.2
20260509221803 38 165 0.0 0.0 0.00 0.00 0.00 89 1019.2
20260509221303 38 165 0.0 0.0 0.00 0.00 0.00 89 1019.2
20260509220816 38 165 0.0 0.0 0.00 0.00 0.00 89 1019.2
20260509220302 38 165 0.0 0.0 0.00 0.00 0.00 88 1019.2
20260509215305 38 165 0.0 0.0 0.00 0.00 0.00 88 1019.2
20260509214803 38 165 0.0 0.0 0.00 0.00 0.00 88 1019.2
20260509214302 39 165 0.0 0.0 0.00 0.00 0.00 87 1019.2
20260509213802 39 165 0.0 0.0 0.00 0.00 0.00 87 1019.2
20260509211802 39 165 0.0 1.0 0.00 0.00 0.00 87 1019.3
20260509211303 39 165 0.0 0.0 0.00 0.00 0.00 86 1019.4
20260509210803 39 165 0.0 0.0 0.00 0.00 0.00 85 1019.4
20260509210303 39 165 0.0 0.0 0.00 0.00 0.00 84 1019.4
20260509205803 39 165 0.0 0.0 0.00 0.00 0.00 83 1019.4
20260509205306 39 165 0.0 0.0 0.00 0.00 0.00 83 1020.5
20260509204804 39 165 0.0 0.0 0.00 0.00 0.00 83 1020.5
20260509204302 39 165 0.0 0.0 0.00 0.00 0.00 82 1020.5
20260509203802 39 165 0.0 0.0 0.00 0.00 0.00 82 1020.5
20260509203303 40 165 0.0 0.0 0.00 0.00 0.00 81 1020.5
20260509202803 40 165 0.0 0.0 0.00 0.00 0.00 80 1020.5
20260509202306 40 165 0.0 0.0 0.00 0.00 0.00 81 1020.5
20260509201803 40 165 0.0 0.0 0.00 0.00 0.00 80 1020.5
20260509201303 40 165 0.0 0.0 0.00 0.00 0.00 80 1020.5
20260509200302 41 165 0.0 0.0 0.00 0.00 0.00 80 1020.5
20260509195803 41 165 0.0 0.0 0.00 0.00 0.00 80 1020.5
20260509195306 41 165 0.0 0.0 0.00 0.00 0.00 80 1020.5
20260509194803 41 165 0.0 0.0 0.00 0.00 0.00 79 1020.5
20260509194303 42 165 0.0 0.0 0.00 0.00 0.00 78 1020.5
20260509193803 42 165 0.0 0.0 0.00 0.00 0.00 77 1020.5
20260509193303 42 165 0.0 0.0 0.00 0.00 0.00 76 1020.5
20260509192803 42 165 0.0 0.0 0.00 0.00 0.00 75 1020.5
20260509192306 43 165 0.0 1.0 0.00 0.00 0.00 74 1020.5
20260509191803 43 165 0.0 1.0 0.00 0.00 0.00 74 1020.5
20260509191303 43 165 0.0 1.0 0.00 0.00 0.00 74 1020.5
20260509190303 44 165 0.0 1.0 0.00 0.00 0.00 73 1020.5
20260509185803 44 165 0.0 0.0 0.00 0.00 0.00 72 1020.5
20260509185306 45 165 0.0 0.0 0.00 0.00 0.00 72 1020.5
20260509184803 45 165 0.0 0.0 0.00 0.00 0.00 73 1020.5
20260509184303 45 165 0.0 0.0 0.00 0.00 0.00 73 1020.5
20260509183803 45 165 0.0 0.0 0.00 0.00 0.00 72 1020.5
20260509183302 46 165 0.0 1.0 0.00 0.00 0.00 72 1020.4
20260509182803 46 165 0.0 2.0 0.00 0.00 0.00 71 1020.4
20260509182306 46 165 0.0 1.0 0.00 0.00 0.00 71 1020.4
20260509181302 47 165 1.0 5.0 0.00 0.00 0.00 70 1020.4
20260509180802 47 171 0.0 1.0 0.00 0.00 0.00 69 1020.4
20260509180302 47 165 0.0 2.0 0.00 0.00 0.00 69 1020.4
20260509175803 48 165 1.0 2.0 0.00 0.00 0.00 68 1020.4
20260509175306 48 192 0.0 3.0 0.00 0.00 0.00 68 1020.5
20260509174303 48 176 1.0 7.0 0.00 0.00 0.00 66 1020.5
20260509173803 49 159 1.0 3.0 0.00 0.00 0.00 65 1020.5
20260509173303 49 186 1.0 3.0 0.00 0.00 0.00 64 1020.5
20260509172803 49 173 1.0 3.0 0.00 0.00 0.00 64 1020.6
20260509172306 50 186 2.0 5.0 0.00 0.00 0.00 63 1020.6
20260509171803 50 187 2.0 6.0 0.00 0.00 0.00 62 1020.6
20260509171303 50 177 1.0 3.0 0.00 0.00 0.00 63 1020.6
20260509170803 50 112 2.0 3.0 0.00 0.00 0.00 64 1020.6
20260509165803 50 17 1.0 3.0 0.00 0.00 0.00 64 1021.7
20260509165306 50 78 1.0 3.0 0.00 0.00 0.00 64 1021.7
20260509164803 50 142 1.0 3.0 0.00 0.00 0.00 64 1021.7
20260509164303 50 79 1.0 3.0 0.00 0.00 0.00 63 1021.7
20260509163803 50 310 2.0 3.0 0.00 0.00 0.00 63 1021.7
20260509163303 50 176 3.0 7.0 0.00 0.00 0.00 61 1021.7
20260509162803 51 165 5.0 12.0 0.00 0.00 0.00 60 1021.7
20260509161803 51 189 2.0 5.0 0.00 0.00 0.00 59 1021.7
20260509161302 51 153 3.0 9.0 0.00 0.00 0.00 59 1021.7
20260509160303 51 149 2.0 6.0 0.00 0.00 0.00 60 1021.7
20260509155803 51 154 2.0 6.0 0.00 0.00 0.00 60 1021.7
20260509154304 52 170 2.0 3.0 0.00 0.00 0.00 56 1021.7
20260509153803 52 180 2.0 6.0 0.00 0.00 0.00 55 1021.7
20260509153303 53 159 2.0 8.0 0.00 0.00 0.00 53 1021.7
20260509152803 53 180 2.0 8.0 0.00 0.00 0.00 53 1021.7
20260509152305 53 150 3.0 7.0 0.00 0.00 0.00 52 1021.7
20260509151802 53 186 2.0 8.0 0.00 0.00 0.00 53 1021.7
20260509151303 53 168 2.0 6.0 0.00 0.00 0.00 52 1021.7
20260509150303 53 158 2.0 5.0 0.00 0.00 0.00 53 1022.6
20260509145803 53 168 3.0 6.0 0.00 0.00 0.00 51 1022.6
20260509145306 53 183 2.0 6.0 0.00 0.00 0.00 51 1022.6
20260509144303 54 289 2.0 5.0 0.00 0.00 0.00 50 1022.6
20260509143803 53 10 2.0 8.0 0.00 0.00 0.00 50 1022.6
20260509143303 54 196 3.0 7.0 0.00 0.00 0.00 51 1022.6
20260509142803 54 134 3.0 7.0 0.00 0.00 0.00 50 1022.6
20260509142306 54 228 2.0 5.0 0.00 0.00 0.00 51 1022.6
20260509141803 54 195 2.0 5.0 0.00 0.00 0.00 50 1022.6
20260509141303 54 178 2.0 5.0 0.00 0.00 0.00 51 1022.6
20260509140303 54 181 3.0 7.0 0.00 0.00 0.00 53 1022.6
20260509135803 54 33 2.0 6.0 0.00 0.00 0.00 52 1022.6
20260509135306 55 191 2.0 6.0 0.00 0.00 0.00 51 1022.6
20260509134803 55 40 2.0 3.0 0.00 0.00 0.00 51 1022.6
20260509134303 55 20 2.0 6.0 0.00 0.00 0.00 53 1022.6
20260509133803 55 230 2.0 6.0 0.00 0.00 0.00 53 1022.7
20260509133303 55 151 2.0 5.0 0.00 0.00 0.00 51 1022.7
20260509132306 56 89 3.0 8.0 0.00 0.00 0.00 49 1022.7
20260509131803 56 158 3.0 7.0 0.00 0.00 0.00 49 1023.9
20260509131303 56 171 2.0 6.0 0.00 0.00 0.00 48 1023.9
20260509130303 55 65 2.0 7.0 0.00 0.00 0.00 48 1023.9
20260509125803 56 163 2.0 6.0 0.00 0.00 0.00 47 1023.9
20260509125307 56 170 1.0 7.0 0.00 0.00 0.00 49 1023.9
20260509124803 55 233 2.0 7.0 0.00 0.00 0.00 48 1023.9
20260509124304 56 147 2.0 8.0 0.00 0.00 0.00 49 1023.9
20260509123803 56 86 1.0 5.0 0.00 0.00 0.00 48 1023.9
20260509123304 56 62 2.0 6.0 0.00 0.00 0.00 49 1023.9
20260509122803 57 163 2.0 6.0 0.00 0.00 0.00 48 1023.9
20260509122306 57 159 1.0 3.0 0.00 0.00 0.00 48 1023.9
20260509121803 57 209 2.0 7.0 0.00 0.00 0.00 44 1023.9
20260509121303 57 291 3.0 6.0 0.00 0.00 0.00 48 1023.9
20260509120803 57 220 3.0 7.0 0.00 0.00 0.00 47 1023.9
20260509120303 57 146 4.0 8.0 0.00 0.00 0.00 45 1023.9
20260509115803 57 124 2.0 6.0 0.00 0.00 0.00 42 1023.9
20260509115306 57 39 2.0 5.0 0.00 0.00 0.00 45 1023.9
20260509114803 57 183 2.0 8.0 0.00 0.00 0.00 45 1023.9
20260509114303 57 173 2.0 7.0 0.00 0.00 0.00 44 1023.9
20260509113803 57 33 3.0 9.0 0.00 0.00 0.00 43 1023.9
20260509113303 57 131 2.0 6.0 0.00 0.00 0.00 43 1023.9
20260509111804 57 145 4.0 9.0 0.00 0.00 0.00 43 1023.9
20260509111303 57 109 3.0 9.0 0.00 0.00 0.00 45 1023.9